TimeCST,TemperatureF,Dew PointF,Humidity,Sea Level PressureIn,VisibilityMPH,Wind Direction,Wind SpeedMPH,Gust SpeedMPH,PrecipitationIn,Events,Conditions,WindDirDegrees,DateUTC
12:56 AM,-16.1,-24.0,67,30.52,10.0,WNW,17.3,-,N/A,,Mostly Cloudy,300,2014-01-06 06:56:00
1:04 AM,-16.1,-24.0,67,30.37,10.0,NW,18.4,27.6,N/A,,Overcast,310,2014-01-06 07:04:00
1:19 AM,-16.1,-24.0,67,30.38,10.0,NW,18.4,29.9,N/A,,Scattered Clouds,310,2014-01-06 07:19:00
1:38 AM,-16.1,-24.0,67,30.37,10.0,NW,23.0,31.1,N/A,,Mostly Cloudy,310,2014-01-06 07:38:00
1:56 AM,-16.1,-25.1,64,30.52,10.0,NW,21.9,31.1,N/A,,Scattered Clouds,310,2014-01-06 07:56:00
2:56 AM,-16.1,-25.1,64,30.52,10.0,NW,23.0,31.1,N/A,,Clear,310,2014-01-06 08:56:00
3:56 AM,-17.0,-24.0,70,30.53,10.0,NW,11.5,23.0,N/A,,Clear,310,2014-01-06 09:56:00
4:56 AM,-17.0,-25.1,67,30.53,10.0,NW,17.3,25.3,N/A,,Clear,310,2014-01-06 10:56:00
5:56 AM,-18.0,-25.1,70,30.53,10.0,WNW,9.2,-,N/A,,Clear,300,2014-01-06 11:56:00
6:56 AM,-18.0,-24.0,74,30.53,10.0,WNW,11.5,-,N/A,,Clear,300,2014-01-06 12:56:00
7:56 AM,-17.0,-25.1,67,30.52,10.0,NW,16.1,-,N/A,,Partly Cloudy,310,2014-01-06 13:56:00
8:56 AM,-16.1,-24.0,67,30.54,10.0,NW,13.8,-,N/A,,Clear,310,2014-01-06 14:56:00
9:56 AM,-15.0,-23.1,67,30.54,10.0,NW,15.0,21.9,N/A,,Clear,310,2014-01-06 15:56:00
10:56 AM,-13.0,-22.0,64,30.54,10.0,WNW,18.4,25.3,N/A,,Partly Cloudy,300,2014-01-06 16:56:00
11:56 AM,-11.9,-22.0,61,30.51,10.0,NW,19.6,25.3,N/A,,Partly Cloudy,310,2014-01-06 17:56:00
12:56 PM,-11.0,-20.0,64,30.48,10.0,WNW,18.4,25.3,N/A,,Partly Cloudy,290,2014-01-06 18:56:00
1:56 PM,-9.9,-20.0,61,30.46,10.0,WNW,16.1,25.3,N/A,,Partly Cloudy,300,2014-01-06 19:56:00
2:56 PM,-9.0,-18.9,62,30.46,10.0,WNW,17.3,26.5,N/A,,Partly Cloudy,290,2014-01-06 20:56:00
3:56 PM,-8.0,-18.0,61,30.46,10.0,WNW,15.0,24.2,N/A,,Clear,290,2014-01-06 21:56:00
4:56 PM,-9.0,-18.0,65,30.44,10.0,WNW,9.2,-,N/A,,Clear,290,2014-01-06 22:56:00
5:56 PM,-9.9,-17.0,71,30.43,10.0,West,5.8,-,N/A,,Clear,260,2014-01-06 23:56:00
6:56 PM,-9.9,-17.0,71,30.42,10.0,West,9.2,-,N/A,,Clear,270,2014-01-07 00:56:00
7:56 PM,-11.9,-18.0,74,30.40,10.0,West,4.6,-,N/A,,Clear,280,2014-01-07 01:56:00
8:56 PM,-11.0,-18.0,71,30.38,10.0,West,5.8,-,N/A,,Clear,260,2014-01-07 02:56:00
9:56 PM,-9.0,-17.0,68,30.35,10.0,SW,4.6,-,N/A,,Mostly Cloudy,230,2014-01-07 03:56:00
10:56 PM,-8.0,-16.1,68,30.33,10.0,WSW,5.8,-,N/A,,Mostly Cloudy,250,2014-01-07 04:56:00
11:56 PM,-8.0,-15.0,71,30.32,10.0,WSW,3.5,-,N/A,,Mostly Cloudy,250,2014-01-07 05:56:00